Location: DarkSkies Observatory
(42.5924°N, 71.9747°W)
Time: 06:18:14
(UTC-05:00)

ISS - Visible Passes

Search period start: 24 November 2017 00:00
Search period end: 04 December 2017 00:00
Orbit: 402 x 407 km, 51.6° (Epoch: 24 November)

Date Brightness Start Highest point End Pass type
(mag) Time Alt. Az. Time Alt. Az. Time Alt. Az.
25 Nov -1.4 17:52:06 10° SSE 17:52:56 13° SSE 17:52:56 13° SSE visible
26 Nov -1.6 18:34:27 10° SW 18:35:47 22° SW 18:35:47 22° SW visible
27 Nov -2.9 17:42:28 10° SSW 17:45:26 32° SE 17:45:51 30° ESE visible
28 Nov -1.9 16:51:00 10° S 16:53:15 17° SE 16:55:29 10° E visible
28 Nov -2.5 18:26:10 10° WSW 18:28:29 40° W 18:28:29 40° W visible
29 Nov -3.9 17:33:46 10° SW 17:37:02 76° SE 17:38:23 32° ENE visible
30 Nov -2.3 18:18:15 10° W 18:20:52 31° NW 18:20:52 31° NW visible
01 Dec -3.2 17:25:32 10° WSW 17:28:45 50° NNW 17:30:37 21° NE visible
02 Dec -1.9 18:10:29 10° WNW 18:12:58 22° NNW 18:12:58 22° NNW visible
03 Dec -2.4 17:17:36 10° W 17:20:31 29° NNW 17:22:38 15° NNE visible
